This is the latest recevied weather packets stored in our database for station/object IR3AS. If no packets are shown the sender has not sent any weather packets the latest 10 day(s).
| Time | Temp. | Humidity | Pressure | Rain* | Wind** | Luminosity | Snow |
|---|---|---|---|---|---|---|---|
| 1787697305 | 11.67° C | 77% | 863.5 hPa | 0 mm | - | - | - |
| 1787697004 | 11.67° C | 80% | 863.5 hPa | 0 mm | - | - | - |
| 1787696704 | 11.11° C | 79% | 863.4 hPa | 0 mm | - | - | - |
| 1787696404 | 11.11° C | 82% | 863.5 hPa | 0 mm | - | - | - |
| 1787696105 | 11.11° C | 82% | 863.6 hPa | 0 mm | - | - | - |
| 1787695805 | 10.56° C | 84% | 863.5 hPa | 0 mm | - | - | - |
| 1787695505 | 11.11° C | 86% | 863.7 hPa | 0 mm | - | - | - |
| 1787695204 | 11.11° C | 83% | 863.7 hPa | 0 mm | - | - | - |
| 1787694905 | 11.67° C | 80% | 863.9 hPa | 0 mm | - | - | - |
| 1787694605 | 11.67° C | 80% | 863.9 hPa | 0 mm | - | - | - |
| 1787694304 | 11.67° C | 81% | 863.8 hPa | 0 mm | - | - | - |
| 1787694063 | 11.67° C | 84% | 863.9 hPa | 0 mm | - | - | - |
| 1787694005 | 11.67° C | 84% | 863.9 hPa | 0 mm | - | - | - |
| 1787693705 | 11.67° C | 84% | 863.7 hPa | 0 mm | - | - | - |
| 1787693450 | 11.67° C | 83% | 863.8 hPa | 0 mm | - | - | - |
| 1787693405 | 11.67° C | 83% | 863.8 hPa | 0 mm | - | - | - |
| 1787693105 | 11.67° C | 83% | 863.7 hPa | 0 mm | - | - | - |
| 1787692805 | 11.67° C | 87% | 864 hPa | 0 mm | - | - | - |
| 1787692505 | 11.11° C | 89% | 863.8 hPa | 0 mm | - | - | - |
| 1787692294 | 11.11° C | 91% | 864.1 hPa | 0 mm | - | - | - |
| 1787692205 | 11.11° C | 91% | 864.1 hPa | 0 mm | - | - | - |
| 1787691905 | 10.56° C | 91% | 863.9 hPa | 0 mm | - | - | - |
| 1787691639 | 10.56° C | 92% | 864.3 hPa | 0 mm | - | - | - |
| 1787691605 | 10.56° C | 92% | 864.3 hPa | 0 mm | - | - | - |
| 1787691305 | 10.56° C | 93% | 864.5 hPa | 0 mm | - | - | - |
* Rain latest hour (hover to see other rain measurements)
** Current wind speed in m/s (hover to see current wind gust speed)